Location: Unspecified
(0.0000°N, 0.0000°E)
Time: 11:00:44
(UTC+00:00)

Altair - Pass Details

Date: 20 November 2019
Orbit: 1502 x 1682 km, 47.2° (Epoch: 14 December)

Event Time Altitude Azimuth Distance (km) Brightness Sun altitude
Rises 22:48:07 0° 214° (SSW) 4,821 10.5 -65.7°
Enters shadow 22:50:55 - 211° (SSW) 3,932 9.9 -66.1°
Reaches altitude 10° 22:51:19 10° 211° (SSW) 3,810 - -66.1°
Maximum altitude 23:00:52 66° 130° (SE) 1,667 - -67.4°
Drops below altitude 10° 23:10:02 10° 49° (NE) 3,673 - -68.4°
Sets 23:13:03 0° 46° (NE) 4,640 - -68.7°
